Weather in Kolki

Ukraine / Rovno District     51°35′18″N   26°37′11″E
В апреле 2022 года жителям России запретили посещать сайт meteo.paraplan.net по решению Генеральной прокуратуры. Аудитория сайта уменьшилась в 10 раз. Владельцы сайта не видят смысла в поддержке погодного сервера в таких условиях. Сайт будет закрыт в октябре.
temp.,
°C
wind,
m/s
gust,
m/s
humid.,
%
clouds,
%
prec.,
mm/h
press.,
hPa
HPBL,
m
30 september, fri
fri3000:00+10n229796 0.3 100943
03:00+8nnw2498100 0.3 101076
06:00+8n239786 0.0 101159
09:00+9n118817 0.0 1013110
12:00+13nne0073100 0.0 1014468
15:00+15e1170100 0.0 1014702
18:00+14ese228099 0.0 101442
21:00+13ese3793100 1.1 1013200
1 october, sat
sat100:00+13sse51196100 1.9 1012379
03:00+12sw6109395 1.9 1012570
06:00+11wsw5997100 0.1 1013458
09:00+10w51090100 0.0 1015537
12:00+12wsw4888100 0.0 1015625
15:00+12wsw4686100 0.1 1015553
18:00+13wsw3482100 0.0 1014452
21:00+12ene0086100 0.0 101311
2 october, sun
sun200:00+11ese2387100 0.0 101266
03:00+11ene2292100 0.4 101069
06:00+11e2294100 0.3 100978
09:00+11wsw3795100 1.1 1009426
12:00+13wnw7981100 1.8 1009879
15:00+12wnw6108597 1.9 1009792
18:00+12wnw6108734 0.6 1009654
21:00+11wnw71391100 1.3 1010844
3 october, mon
mon300:00+10wnw7139198 0.4 1009686
03:00+9wnw7149055 0.4 1010657
06:00+9wnw71392100 0.3 1010663
09:00+9wnw61191100 0.6 1011665
12:00+10wnw61088100 0.1 1011688
15:00+10wnw61188100 0.2 1011791
18:00+11w7128257 0.1 1011838
21:00+10w61188100 0.4 1012686
4 october, tue
tue400:00+10w61187100 0.1 1011671
03:00+9wsw71393100 1.6 1010860
06:00+9w5109258 1.3 1010559
09:00+9w51090100 2.4 1011520
12:00+10wnw588778 0.6 1012885
15:00+11wnw4780100 1.1 1013950
18:00+10w388683 0.9 1014289
21:00+9w369151 1.0 1016160